Lid_Strength_Index
2 3 3 3 3 3 3 3 4 4 4 4 5 5 5 5 5 5 5 5 5 4 5 5 6 6 5 9 10 5 2 3 4 5 7 8 9 9 11 10 11 10 9 8 7 7 7
2 3 3 3 3 3 3 3 4 4 5 5 5 5 5 5 6 6 5 6 6 5 6 4 4 5 7 11 5 4 4 4 4 6 7 7 8 8 10 10 11 10 11 9 8 8 7
2 3 3 3 3 3 3 4 4 4 4 5 5 5 5 6 6 6 6 6 7 7 6 4 4 5 8 10 5 3 3 4 4 4 6 5 5 8 8 10 7 8 12 11 9 9 9
3 3 3 3 3 3 3 4 4 4 4 4 5 5 6 6 6 6 6 7 6 7 7 6 6 6 11 5 3 3 2 3 2 3 4 3 3 6 8 7 9 11 11 13 9 9 8
3 3 3 3 3 3 3 4 4 4 4 5 5 6 6 7 6 6 6 6 6 6 6 6 8 8 11 3 6 3 3 5 3 3 2 2 3 6 7 10 11 11 14 13 11 8 8
3 3 3 3 3 3 3 4 4 4 4 5 6 6 6 7 6 6 7 7 7 6 8 8 9 11 9 9 5 4 3 3 4 4 4 5 5 8 8 10 16 14 15 13 12 9 9
3 3 3 3 3 4 4 4 4 4 4 5 6 6 7 7 7 7 7 9 11 11 11 13 11 11 9 6 4 5 4 4 4 6 9 6 10 12 10 9 9 11 13 14 12 9 11
3 3 3 4 4 4 4 4 4 4 4 5 5 6 7 8 8 7 8 11 12 11 13 11 10 9 7 6 9 6 4 8 8 10 8 9 12 9 8 9 10 11 13 14 12 10 12
3 3 4 4 4 4 4 4 4 4 5 5 5 6 7 8 10 9 10 11 8 9 13 13 11 10 9 8 9 9 6 7 9 10 11 12 11 8 9 10 11 11 13 13 14 12 11
4 4 4 4 4 4 4 4 4 4 5 5 5 7 8 8 10 11 12 10 8 8 15 15 13 11 9 8 10 6 5 8 9 12 11 11 10 10 11 12 11 13 10 11 12 13 17
5 4 4 4 4 4 5 5 5 5 5 5 5 7 9 9 11 13 12 10 8 10 20 14 13 7 8 10 9 9 5 8 12 12 12 13 12 12 13 12 10 12 10 11 11 13 13
5 5 5 5 5 5 5 5 5 5 5 6 6 7 9 10 10 11 11 10 11 17 22 17 12 13 12 11 10 8 8 7 9 11 11 11 9 10 11 10 10 10 11 11 11 13 18
5 5 5 5 6 6 6 5 5 5 6 6 6 7 10 11 13 10 11 12 17 22 16 17 17 15 13 14 13 11 11 12 14 17 16 12 12 10 10 13 11 13 13 18 20 20 19
5 5 5 5 6 6 6 6 5 6 6 7 7 9 10 10 10 10 11 14 22 20 19 16 16 15 16 14 14 12 13 14 12 14 15 17 17 13 11 13 16 15 14 18 21 21 18
5 6 6 6 6 6 6 6 5 6 6 7 9 9 10 10 10 9 12 20 22 20 18 18 17 18 17 14 14 13 14 14 13 13 17 17 16 11 11 11 12 16 16 15 16 15 18
6 6 6 6 6 6 6 6 6 6 6 8 10 10 11 10 10 10 15 21 20 18 18 17 20 18 20 17 16 15 15 12 14 12 11 14 18 12 12 11 11 14 13 17 15 20 20
6 6 6 7 6 6 6 6 6 6 7 9 10 12 11 10 10 13 19 20 19 17 17 19 19 19 18 18 17 16 15 13 12 13 11 13 16 15 13 15 16 15 16 16 17 16 20
6 6 6 7 7 7 7 6 7 7 8 9 11 14 11 10 15 16 19 19 18 18 17 18 17 18 19 18 18 17 16 14 11 12 14 12 15 17 16 13 12 13 16 15 18 19 17
6 6 6 7 7 7 7 7 7 7 8 11 13 14 10 11 17 17 18 18 18 18 18 18 19 17 17 19 20 17 16 13 12 13 14 13 15 17 17 15 13 16 15 15 15 15 19
7 7 7 7 7 7 7 7 7 8 8 10 12 14 13 14 15 17 18 19 19 17 18 18 18 17 18 18 17 19 17 14 13 13 11 12 15 17 19 19 16 18 17 16 16 18 19
7 7 7 7 7 7 8 7 8 8 9 10 13 15 17 16 17 17 18 19 19 19 18 18 19 19 19 22 19 19 17 16 14 13 14 15 17 17 16 16 16 16 17 17 19 18 19
7 7 8 8 8 8 8 8 8 8 9 11 13 14 14 16 17 18 18 18 20 19 19 19 20 18 19 21 19 21 19 19 18 16 16 15 17 16 17 15 16 17 16 16 17 18 18
8 8 8 8 8 8 8 8 8 8 8 12 12 13 13 16 17 18 17 18 18 18 17 17 18 19 21 20 17 16 16 16 16 18 18 18 19 18 18 16 16 18 18 17 17 16 18
8 8 8 8 8 8 8 8 8 8 9 11 13 13 14 14 17 17 18 18 18 18 19 18 18 19 17 16 16 17 17 17 17 17 16 20 20 19 19 17 21 16 14 14 16 16 15
8 8 8 9 9 9 9 8 8 8 10 11 12 13 14 16 16 17 18 18 17 18 19 18 17 16 16 18 19 19 20 20 18 17 18 19 20 19 20 19 17 16 15 16 17 16 15
7 7 8 8 9 9 9 9 8 8 10 10 12 12 14 16 14 17 18 18 18 17 18 19 17 17 18 18 19 21 21 21 20 19 19 21 22 19 19 21 22 16 14 13 14 17 14
7 7 7 8 8 9 9 8 8 8 9 10 11 12 13 16 14 17 17 17 18 19 18 18 18 19 19 18 19 21 21 21 21 23 20 19 19 20 19 20 17 15 14 13 18 16 13
6 6 7 7 8 8 8 9 8 8 8 10 11 12 13 16 14 16 16 18 18 18 18 19 19 20 18 19 20 20 21 20 23 19 20 20 20 18 20 22 21 15 15 17 13 12 12
6 6 6 7 7 8 8 9 8 8 7 9 12 12 13 16 14 15 15 14 15 16 16 19 18 19 17 18 19 19 20 21 21 21 19 21 17 17 17 16 15 14 13 12 12 13 11